Goodland, KS

9:04 PM MDT on August 20, 2017 (GMT -0600)
Renner-Goodland Municipal

Weather History for KGLD - September, 2013

Change the Weather History Date:

Thursday, September 19, 2013

  Actual Average Record
Temperature  
Mean Temperature 63 °F 63 °F  
Max Temperature 73 °F 78 °F 99 °F (1935)
Min Temperature 53 °F 49 °F 32 °F (1971)
Degree Days  
Heating Degree Days 2 4  
Month to date heating degree days 19 43  
Since 1 July heating degree days 26 55  
Cooling Degree Days 0 3  
Month to date cooling degree days 171 84  
Year to date cooling degree days 1169 917  
Growing Degree Days 13 (Base 50)    
Moisture  
Dew Point 51 °F    
Average Humidity 67    
Maximum Humidity 90    
Minimum Humidity 44    
Precipitation  
Precipitation T in 0.04 in 0.92 in (1921)
Month to date precipitation 6.27 0.79  
Year to date precipitation 15.06 16.69  
Snow  
Snow 0.00 in 0.10 in - ()
Month to date snowfall 0.0 0.2  
Since 1 July snowfall 0.0 0.2  
Since 1 September snowfall 0.0 0.2  
Snow Depth 0.00 in    
Sea Level Pressure  
Sea Level Pressure 29.94 in    
Wind  
Wind Speed 10 mph (North)    
Max Wind Speed 25 mph    
Max Gust Speed 31 mph    
Visibility 10 miles    
Events      
T = Trace of Precipitation, MM = Missing Value Source: NWS Daily Summary

Daily Weather History Graph

Daily Weather History Graph

Search for Another Location

Airport or City:

Trip Planner

Search our weather history database for the weather conditions in past years. The results will help you decide how hot, cold, wet, or windy it might be!

Date:

Astronomy

Sep. 19, 2013 Rise Set
Actual Time 6:31 AM MDT 6:48 PM MDT
Civil Twilight 6:05 AM MDT 7:15 PM MDT
Nautical Twilight 5:33 AM MDT 7:46 PM MDT
Astronomical Twilight 5:01 AM MDT 8:18 PM MDT
Moon 6:48 PM MDT (9/19) 6:43 AM MDT (9/19)
Length of Visible Light 13h 09m
Length of Day
12h 16m
Full, 100% of the Moon is Illuminated
Sep 19
Full
Sep 26
Last Quarter
Oct 4
New
Oct 11
First Quarter
Oct 18
Full

Hourly Weather History & Observations

Time (MDT) Temp. Dew Point Humidity Pressure Visibility Wind Dir Wind Speed Gust Speed Precip Events Conditions
12:53 AM 64.0 °F 55.0 °F 73% 29.72 in 10.0 mi NW 5.8 mph - N/A   Partly Cloudy
1:53 AM 62.1 °F 55.0 °F 78% 29.71 in 10.0 mi Calm Calm - N/A   Partly Cloudy
2:53 AM 60.1 °F 55.0 °F 83% 29.72 in 10.0 mi WNW 5.8 mph - N/A   Clear
3:53 AM 60.1 °F 55.0 °F 83% 29.74 in 10.0 mi West 6.9 mph - N/A   Scattered Clouds
4:53 AM 59.0 °F 55.0 °F 87% 29.75 in 10.0 mi Calm Calm - N/A   Clear
5:53 AM 60.1 °F 55.9 °F 86% 29.78 in 10.0 mi Calm Calm - N/A   Partly Cloudy
6:53 AM 60.1 °F 57.0 °F 90% 29.83 in 10.0 mi West 9.2 mph - N/A   Clear
7:53 AM 62.1 °F 59.0 °F 90% 29.85 in 10.0 mi NNW 4.6 mph - 0.00 in   Mostly Cloudy
8:53 AM 64.9 °F 55.9 °F 73% 29.89 in 10.0 mi North 19.6 mph 25.3 mph N/A   Clear
9:53 AM 64.9 °F 53.1 °F 65% 29.94 in 10.0 mi North 16.1 mph 29.9 mph N/A   Mostly Cloudy
10:08 AM 64.4 °F 51.8 °F 64% 30.06 in 10.0 mi North 23.0 mph 31.1 mph N/A   Mostly Cloudy
10:32 AM 64.4 °F 51.8 °F 64% 30.06 in 10.0 mi North 19.6 mph 29.9 mph N/A   Scattered Clouds
10:42 AM 62.6 °F 50.0 °F 63% 30.07 in 10.0 mi North 19.6 mph 29.9 mph N/A   Mostly Cloudy
10:53 AM 64.0 °F 48.9 °F 58% 29.96 in 10.0 mi North 21.9 mph 28.8 mph N/A   Mostly Cloudy
11:23 AM 64.4 °F 48.2 °F 56% 30.06 in 10.0 mi NNE 20.7 mph 28.8 mph N/A   Partly Cloudy
11:53 AM 66.9 °F 48.0 °F 51% 29.96 in 10.0 mi NNE 17.3 mph 26.5 mph N/A   Clear
12:53 PM 69.1 °F 46.0 °F 44% 29.95 in 10.0 mi NNE 20.7 mph 27.6 mph N/A   Clear
1:53 PM 71.1 °F 48.0 °F 44% 29.94 in 10.0 mi North 19.6 mph 27.6 mph N/A   Clear
2:53 PM 72.0 °F 48.0 °F 43% 29.96 in 10.0 mi North 16.1 mph 28.8 mph N/A   Scattered Clouds
3:53 PM 71.1 °F 48.9 °F 45% 29.96 in 10.0 mi NNE 16.1 mph 25.3 mph N/A   Clear
4:53 PM 69.1 °F 48.9 °F 49% 29.98 in 10.0 mi North 16.1 mph 20.7 mph N/A   Partly Cloudy
5:53 PM 66.9 °F 48.0 °F 51% 29.98 in 10.0 mi North 17.3 mph - N/A   Mostly Cloudy
6:53 PM 61.0 °F 48.0 °F 62% 30.01 in 10.0 mi North 12.7 mph - N/A   Clear
7:53 PM 55.9 °F 48.9 °F 77% 30.06 in 10.0 mi North 6.9 mph - N/A   Clear
8:53 PM 53.1 °F 48.9 °F 86% 30.09 in 10.0 mi NE 5.8 mph - N/A   Clear
9:53 PM 55.0 °F 50.0 °F 83% 30.10 in 10.0 mi East 3.5 mph - N/A   Clear
10:53 PM 54.0 °F 50.0 °F 86% 30.12 in 10.0 mi Calm Calm - N/A   Clear
11:53 PM 54.0 °F 50.0 °F 86% 30.12 in 10.0 mi SSE 4.6 mph - N/A   Scattered Clouds